Location: Chrome
(40.5765°N, 74.2163°W)
Time: 23:59:01
(UTC+00:00)

CZ-4B R/B - Pass Details

Date: 06 December 2019
Orbit: 392 x 469 km, 97.6° (Epoch: 26 January)

Event Time Altitude Azimuth Distance (km) Brightness Sun altitude
Rises 22:04:37 0° 354° (N) 2,522 5.0 -6.7°
Reaches altitude 10° 22:07:13 10° 333° (NNW) 1,639 4.3 -7.2°
Maximum altitude 22:09:31 17° 292° (WNW) 1,274 4.3 -7.6°
Drops below altitude 10° 22:11:48 10° 251° (WSW) 1,622 6.0 -8.0°
Sets 22:14:21 0° 230° (SW) 2,484 6.9 -8.4°
